Date,TemperatureHighF,TemperatureAvgF,TemperatureLowF,DewpointHighF,DewpointAvgF,DewpointLowF,HumidityHigh,HumidityAvg,HumidityLow,PressureMaxIn,PressureMinIn,WindSpeedMaxMPH,WindSpeedAvgMPH,GustSpeedMaxMPH,PrecipitationSumIn
2012-1-1,85,56,38,60,46,32,88,69,42,29.75,29.57,15,0,15,0.00
2012-1-2,70,46,31,34,22,8,63,41,20,29.74,29.58,12,0,12,0.00
2012-1-3,56,33,23,18,11,8,55,41,21,29.96,29.73,10,0,10,0.00
2012-1-4,70,38,20,24,15,10,68,42,17,29.98,29.75,5,0,5,0.00
2012-1-5,80,49,35,40,26,16,59,43,22,29.76,29.66,7,0,7,0.00
2012-1-6,87,54,37,43,32,26,68,48,20,29.73,29.62,7,0,7,0.00
2012-1-7,88,58,45,58,46,32,88,65,37,29.72,29.60,3,0,3,0.00
2012-1-8,85,60,46,61,51,44,90,75,42,29.79,29.68,4,0,4,0.00
2012-1-9,83,60,52,65,54,49,90,83,55,29.77,29.65,3,0,3,0.00
2012-1-10,75,62,53,60,55,49,90,78,58,29.65,29.49,0,0,0,0.00
2012-1-11,78,57,45,62,51,40,90,81,54,29.50,29.13,12,0,12,0.08
2012-1-12,84,55,38,53,44,23,89,70,34,29.45,29.19,11,0,11,0.02
2012-1-13,64,38,26,30,21,15,74,52,26,29.75,29.45,8,0,8,0.00
2012-1-14,70,41,25,30,21,17,73,49,22,29.87,29.73,8,0,9,0.00
2012-1-15,76,46,34,35,26,21,67,48,21,30.07,29.73,8,0,8,0.00
2012-1-16,67,48,34,42,31,24,71,55,36,30.14,29.91,8,0,8,0.00
2012-1-17,81,58,47,58,50,41,89,74,45,29.92,29.55,7,0,7,0.00
2012-1-18,78,54,34,56,42,24,91,66,31,29.65,29.47,6,0,6,0.25
2012-1-19,76,44,27,41,28,22,87,58,24,29.79,29.63,5,0,5,0.00
2012-1-20,76,52,38,50,39,25,90,64,32,29.72,29.60,8,0,8,2.04
2012-1-21,63,57,52,59,52,48,90,84,75,29.65,29.49,7,0,7,1.08
2012-1-22,56,50,41,48,45,39,92,84,75,29.83,29.63,8,1,8,0.00
2012-1-23,54,47,41,50,43,37,91,86,79,29.80,29.58,9,0,9,0.04
2012-1-24,92,65,43,59,45,37,80,52,26,29.79,29.69,5,0,5,0.00
2012-1-25,87,56,36,55,44,34,92,69,32,29.87,29.72,7,0,7,0.00
2012-1-26,80,63,53,64,56,46,91,79,58,29.73,29.32,11,0,11,0.00
2012-1-27,82,60,41,60,49,36,92,71,33,29.62,29.28,13,1,13,0.00
2012-1-28,85,53,37,48,40,33,91,65,28,29.80,29.60,8,0,8,0.00
2012-1-29,79,48,30,33,26,16,82,47,17,29.98,29.80,7,0,7,0.00
2012-1-30,86,51,33,35,23,17,57,38,15,30.03,29.91,5,0,5,0.00
2012-1-31,79,52,34,42,30,21,70,46,23,30.00,29.87,7,0,7,0.00
2012-2-1,87,61,43,58,48,30,91,66,35,29.88,29.68,9,0,9,0.00
2012-2-2,94,65,51,59,52,39,91,67,29,29.84,29.63,7,0,7,0.00
2012-2-3,81,58,48,41,36,31,65,46,24,30.00,29.84,13,0,13,0.00
2012-2-4,89,64,52,59,49,40,75,59,36,29.90,29.61,8,0,8,0.00
2012-2-5,97,68,53,60,54,47,89,66,29,29.70,29.54,8,0,8,0.00
2012-2-6,53,48,38,47,41,35,90,78,69,29.81,29.69,7,0,11,0.00
2012-2-7,75,48,36,49,39,33,91,74,39,29.75,29.68,0,0,7,0.00
2012-2-8,82,51,36,46,37,32,91,64,28,29.76,29.64,6,0,9,0.00
2012-2-9,76,46,32,41,32,28,88,63,29,29.86,29.75,9,0,9,0.00
2012-2-10,71,48,34,49,38,29,90,72,44,29.77,29.51,6,0,6,0.00
2012-2-11,65,44,26,40,26,8,81,53,23,29.81,29.39,20,1,20,0.00
2012-2-12,66,36,20,22,12,6,57,40,19,29.93,29.80,8,0,8,0.00
2012-2-13,77,43,21,31,19,11,69,42,17,29.87,29.69,6,0,6,0.00
2012-2-14,58,47,38,45,35,20,80,63,43,29.71,29.59,2,0,2,0.00
2012-2-15,84,57,39,50,43,36,91,64,30,29.82,29.68,7,0,7,0.00
2012-2-16,70,57,-3,62,53,-8,91,88,76,29.77,29.57,3,0,3,0.00
2012-2-17,79,52,-3,55,43,-7,92,72,41,29.71,29.60,2,0,2,0.00
2012-2-18,75,54,43,52,46,40,92,76,39,29.68,29.47,8,0,8,0.34
2012-2-19,93,50,-3,92,48,-7,97,91,80,29.54,29.19,7,0,7,0.80
2012-2-20,75,47,32,49,37,29,92,72,34,29.87,29.54,8,0,8,0.00
2012-2-21,81,50,32,53,40,29,91,71,36,29.87,29.62,8,0,11,0.00
2012-2-22,91,63,48,57,50,45,91,66,28,29.63,29.24,9,0,9,0.00
2012-2-23,95,72,59,66,59,53,91,69,32,29.32,29.22,9,0,9,0.00
2012-2-24,73,63,47,66,57,31,91,81,55,29.58,29.22,10,0,10,0.00
2012-2-25,72,49,38,32,27,22,62,45,22,29.86,29.58,12,1,12,0.00
2012-2-26,79,51,35,39,30,24,67,47,21,30.04,29.86,12,0,12,0.00
2012-2-27,69,52,46,56,46,39,91,81,60,29.98,29.89,6,0,6,0.00
2012-2-28,78,58,43,58,49,40,91,75,42,29.94,29.83,8,0,8,0.00
2012-2-29,92,66,56,66,58,49,90,77,43,29.83,29.52,9,0,9,0.26
2012-3-1,92,69,60,69,62,56,91,79,41,29.54,29.42,8,0,8,0.29
2012-3-2,86,70,62,67,61,58,91,75,51,29.52,29.31,10,0,10,0.00
2012-3-3,69,61,49,64,56,46,90,84,69,29.37,29.24,10,0,10,0.51
2012-3-4,69,50,37,46,33,23,91,59,22,29.66,29.26,13,0,13,0.20
2012-3-5,78,53,38,37,27,20,66,41,18,30.04,29.58,14,0,14,0.00
2012-3-6,78,50,34,35,26,20,61,41,20,30.18,30.03,9,0,9,0.00
2012-3-7,78,59,47,54,46,34,79,64,43,30.14,29.96,11,0,11,0.00
2012-3-8,92,64,48,62,53,45,90,68,35,29.97,29.69,9,0,9,0.00
2012-3-9,71,61,48,61,54,36,90,79,61,29.85,29.68,7,0,7,0.00
2012-3-10,84,55,36,39,33,28,77,47,19,30.01,29.84,12,0,12,0.35
2012-3-11,86,59,39,53,44,33,89,61,33,30.09,29.93,7,0,7,0.00
2012-3-12,80,63,53,58,53,49,87,71,45,29.97,29.82,9,0,9,0.00
2012-3-13,90,66,59,69,58,53,89,78,48,29.86,29.74,1,0,1,0.00
2012-3-14,104,72,57,68,57,50,90,63,26,29.82,29.73,0,0,0,0.00
2012-3-15,105,73,54,66,56,49,90,60,25,29.85,29.72,0,0,0,0.00
2012-3-16,107,74,59,67,59,55,89,63,27,29.81,29.66,11,0,11,0.00
2012-3-17,102,73,58,67,59,54,89,65,32,29.82,29.69,6,0,6,0.00
2012-3-18,100,73,59,67,59,55,89,66,31,29.87,29.73,7,0,7,0.00
2012-3-19,105,75,56,67,59,53,89,61,29,29.78,29.65,4,0,4,0.00
2012-3-20,100,75,56,66,58,53,89,61,32,29.78,29.65,10,0,10,0.00
2012-3-21,94,71,57,66,60,52,89,69,40,29.83,29.70,8,0,8,0.00
2012-3-22,102,73,62,69,63,58,89,73,33,29.81,29.69,7,0,7,0.00
2012-3-23,94,68,61,71,61,54,89,80,46,29.73,29.55,9,0,9,0.98
2012-3-24,100,72,62,70,58,48,90,62,34,29.56,29.30,8,0,8,0.00
2012-3-25,83,64,49,54,49,44,87,60,36,29.45,29.32,9,0,9,0.00
2012-3-26,99,69,50,58,50,44,86,56,21,29.60,29.43,6,0,6,0.00
2012-3-27,92,67,55,50,44,40,72,47,24,29.85,29.60,10,0,10,0.00
2012-3-28,99,69,53,65,55,49,87,64,31,29.81,29.56,6,0,6,0.00
2012-3-29,99,73,56,64,56,50,82,58,31,29.58,29.46,7,0,7,0.00
2012-3-30,101,75,58,64,56,50,88,56,26,29.57,29.44,7,0,7,0.00
2012-3-31,85,69,62,68,62,58,89,79,54,29.50,29.35,6,0,6,0.71
2012-4-1,104,75,56,72,58,49,91,60,23,29.47,29.34,5,0,5,0.00
2012-4-2,108,79,62,67,61,56,87,58,25,29.48,29.32,6,0,6,0.00
2012-4-3,96,73,62,72,64,58,90,76,42,29.57,29.42,7,0,7,1.45
2012-4-4,103,71,58,72,62,51,90,76,36,29.51,29.26,8,0,8,0.31
2012-4-5,101,74,59,71,61,52,90,68,32,29.29,29.20,6,0,6,0.00
2012-4-6,83,60,48,57,49,42,89,70,30,29.65,29.27,10,0,10,0.00
2012-4-7,94,62,42,58,46,40,90,61,24,29.84,29.65,5,0,5,0.00
2012-4-8,99,69,49,56,48,41,75,52,24,29.75,29.57,7,0,7,0.00
2012-4-9,98,69,52,50,44,37,81,46,17,29.70,29.51,8,0,8,0.00
2012-4-10,97,70,50,50,44,37,66,43,20,29.64,29.45,7,0,7,0.00
2012-4-11,86,62,47,48,35,27,67,40,16,29.66,29.49,8,0,8,0.00
2012-4-12,87,57,36,40,32,24,66,42,19,29.82,29.66,9,0,9,0.00
2012-4-13,94,61,39,50,40,32,86,51,20,29.82,29.71,6,0,6,0.00
2012-4-14,97,66,43,55,45,39,89,52,23,29.90,29.75,12,0,12,0.00
2012-4-15,96,72,57,67,59,53,89,66,38,29.81,29.72,8,0,9,0.00
2012-4-16,105,74,54,67,59,51,89,64,29,29.80,29.71,6,0,6,0.00
2012-4-17,105,77,59,68,61,56,89,62,29,29.76,29.59,7,0,7,0.00
2012-4-18,77,63,56,65,58,51,89,82,65,29.66,29.59,4,0,7,0.04
2012-4-19,74,61,54,62,55,48,90,81,65,29.63,29.54,1,0,1,0.00
2012-4-20,79,66,57,64,59,54,90,80,60,29.57,29.41,0,0,0,0.00
2012-4-21,97,72,60,70,60,55,89,69,38,29.45,29.23,5,0,5,0.00
2012-4-22,86,64,52,65,53,36,89,70,40,29.25,29.05,9,0,9,0.00
2012-4-23,76,54,39,42,34,29,76,50,25,29.39,29.22,10,0,10,0.00
2012-4-24,80,57,39,44,36,29,70,48,26,29.47,29.38,9,0,9,0.00
2012-4-25,102,69,46,61,49,38,76,54,26,29.53,29.42,7,0,7,0.00
2012-4-26,103,78,62,63,55,51,74,48,24,29.57,29.43,7,0,7,0.00
2012-4-27,104,80,65,70,61,54,74,54,33,29.63,29.49,8,0,8,0.00
2012-4-28,108,80,62,71,63,57,88,61,27,29.68,29.57,4,0,4,0.00
2012-4-29,111,80,63,70,62,58,88,60,23,29.72,29.62,0,0,0,0.00
2012-4-30,109,81,63,70,63,59,88,59,25,29.76,29.63,16,0,16,0.00
2012-5-1,108,80,63,71,64,59,88,62,29,29.76,29.62,6,0,6,0.00
2012-5-2,110,81,63,71,63,57,88,59,24,29.74,29.62,12,0,12,0.00
2012-5-3,105,82,66,70,64,61,88,60,29,29.74,29.63,8,0,8,0.00
2012-5-4,104,80,67,73,65,62,84,63,35,29.68,29.54,3,0,3,0.00
2012-5-5,113,85,65,73,65,60,87,56,25,29.56,29.38,6,0,6,0.00
2012-5-6,104,81,66,69,64,59,80,57,32,29.56,29.45,6,0,7,0.00
2012-5-7,101,77,67,69,64,61,86,68,33,29.59,29.47,11,0,11,0.00
2012-5-8,98,75,66,73,66,60,88,76,42,29.54,29.40,7,0,7,0.18
2012-5-9,93,71,61,75,64,55,88,79,51,29.45,29.26,6,0,6,0.92
2012-5-10,98,70,52,64,51,43,89,56,24,29.51,29.37,7,0,7,0.00
2012-5-11,99,72,51,59,53,47,88,57,25,29.76,29.51,12,0,12,0.00
2012-5-12,90,73,59,64,57,53,88,61,36,29.87,29.75,10,0,10,0.00
2012-5-13,74,66,61,66,60,55,88,83,70,29.80,29.63,6,0,6,0.18
2012-5-14,103,75,65,76,63,55,88,69,39,29.63,29.44,8,0,8,1.04
2012-5-15,106,80,62,74,64,56,88,63,31,29.56,29.45,7,0,7,0.00
2012-5-16,102,78,64,72,64,59,88,66,37,29.54,29.45,5,0,5,0.00
2012-5-17,102,72,62,71,63,57,88,76,37,29.57,29.47,6,0,6,0.10
2012-5-18,83,68,60,64,59,53,88,74,49,29.65,29.53,8,0,8,0.00
2012-5-19,100,72,56,61,54,47,88,59,23,29.70,29.59,8,0,8,0.00
2012-5-20,101,74,55,61,53,49,87,54,23,29.68,29.56,8,0,8,0.00
2012-5-21,107,78,58,67,59,52,86,56,26,29.61,29.45,7,0,7,0.00
2012-5-22,105,79,61,69,62,57,87,60,28,29.47,29.34,7,0,8,0.00
2012-5-23,107,79,58,66,60,54,88,57,25,29.46,29.38,7,0,7,0.00
2012-5-24,106,82,63,72,62,55,87,55,28,29.57,29.45,8,0,8,0.00
2012-5-25,111,85,66,75,66,61,87,58,27,29.68,29.56,8,0,8,0.00
2012-5-26,110,85,66,72,66,62,87,57,28,29.69,29.57,9,0,9,0.00
2012-5-27,105,82,66,73,66,61,86,61,33,29.64,29.54,14,0,14,0.00
2012-5-28,101,79,70,78,69,66,87,73,43,29.59,29.47,12,0,13,0.00
2012-5-29,84,72,68,76,66,55,87,81,63,29.53,29.35,9,0,9,0.54
2012-5-30,109,81,66,79,63,53,89,57,31,29.42,29.32,3,0,3,0.00
2012-5-31,108,84,64,75,65,59,88,59,24,29.47,29.35,10,0,10,0.16
2012-6-1,103,79,64,74,66,60,88,67,35,29.46,29.30,8,0,8,0.00
2012-6-2,99,76,59,65,55,42,88,54,23,29.51,29.38,7,0,7,0.00
2012-6-3,102,78,56,63,56,46,79,51,29,29.58,29.43,7,0,7,0.00
2012-6-4,101,76,67,73,66,60,88,72,40,29.44,29.30,4,0,4,0.12
2012-6-5,86,70,62,71,62,58,88,77,52,29.45,29.26,4,0,4,0.04
2012-6-6,84,67,61,68,61,57,89,82,55,29.55,29.38,14,0,14,0.06
2012-6-7,98,75,56,70,59,50,89,62,33,29.62,29.54,10,0,10,0.00
2012-6-8,101,78,59,68,60,54,88,58,29,29.64,29.55,7,0,7,0.00
2012-6-9,103,80,60,69,60,55,88,55,27,29.66,29.57,12,0,12,0.00
2012-6-10,93,74,68,78,67,59,88,78,58,29.70,29.59,9,0,9,1.94
2012-6-11,89,73,66,78,66,57,88,77,67,29.67,29.57,8,0,8,0.45
2012-6-12,106,81,67,78,70,61,89,71,38,29.61,29.43,8,0,8,0.57
2012-6-13,108,82,66,77,67,54,89,63,34,29.53,29.45,5,0,5,0.18
2012-6-14,104,81,66,72,64,60,89,62,31,29.68,29.52,10,0,10,0.00
2012-6-15,99,80,65,67,61,52,86,57,31,29.75,29.64,11,0,11,0.00
2012-6-16,103,77,58,64,58,53,88,56,26,29.81,29.67,10,0,10,0.00
2012-6-17,109,79,57,67,60,53,89,56,26,29.73,29.56,8,0,8,0.00
2012-6-18,106,81,63,69,62,56,87,57,29,29.68,29.60,8,0,8,0.00
2012-6-19,106,82,62,71,63,58,88,56,25,29.76,29.68,8,0,8,0.00
2012-6-20,106,84,64,73,66,60,88,59,33,29.75,29.64,10,0,10,0.00
2012-6-21,102,83,66,73,67,62,88,62,38,29.68,29.52,5,0,5,0.00
2012-6-22,112,87,64,74,66,60,88,54,29,29.55,29.42,8,0,8,0.00
2012-6-23,110,86,68,77,68,62,88,58,30,29.55,29.45,8,0,8,0.00
2012-6-24,103,86,73,77,71,65,88,65,36,29.56,29.45,8,0,8,0.00
2012-6-25,105,82,69,75,70,64,88,69,39,29.49,29.27,7,0,7,0.00
2012-6-26,103,82,69,70,64,56,89,59,29,29.42,29.27,17,0,17,0.00
2012-6-27,108,80,58,61,56,52,80,49,22,29.58,29.41,8,0,8,0.00
2012-6-28,119,88,62,66,60,53,75,44,18,29.64,29.50,7,0,7,0.00
2012-6-29,126,95,74,73,65,60,72,43,16,29.50,29.37,2,0,2,0.00
2012-6-30,125,96,72,74,68,63,73,44,19,29.46,29.37,8,0,8,0.00
2012-7-1,122,88,69,79,71,62,88,62,23,29.67,29.42,12,0,12,0.13
2012-7-2,114,87,69,75,69,65,88,60,27,29.70,29.53,8,0,8,0.00
2012-7-3,116,90,73,79,71,64,87,58,28,29.60,29.50,14,0,14,0.00
2012-7-4,115,90,69,75,69,64,88,56,27,29.63,29.49,8,0,8,0.00
2012-7-5,117,93,70,74,69,63,87,51,25,29.60,29.42,6,0,6,0.04
2012-7-6,115,86,69,79,71,64,88,65,32,29.58,29.48,0,0,0,0.00
2012-7-7,117,90,70,77,71,66,88,59,26,29.63,29.52,0,0,0,0.00
2012-7-8,117,92,74,77,70,66,84,54,26,29.62,29.46,0,0,0,0.00
2012-7-9,117,89,73,77,71,66,87,60,27,29.54,29.41,7,0,7,0.18
2012-7-10,118,87,70,78,71,65,88,65,26,29.64,29.44,7,0,7,0.39
2012-7-11,108,81,69,80,69,59,89,68,38,29.66,29.54,12,0,12,0.57
2012-7-12,102,78,70,77,70,63,89,77,44,29.70,29.62,5,0,5,1.02
2012-7-13,105,82,72,79,71,63,90,71,43,29.71,29.63,9,0,9,0.00
2012-7-14,110,84,72,79,72,66,90,68,34,29.77,29.65,10,0,10,0.00
2012-7-15,114,87,70,79,71,65,89,64,29,29.78,29.62,8,0,8,0.00
2012-7-16,117,86,70,79,71,66,89,65,28,29.68,29.50,8,0,8,0.00
2012-7-17,103,82,68,78,70,65,89,71,38,29.60,29.47,4,0,4,0.00
2012-7-18,112,84,71,80,70,64,89,68,34,29.62,29.49,5,0,5,0.00
2012-7-19,115,83,69,78,71,65,89,72,32,29.65,29.56,10,0,10,0.06
2012-7-20,111,87,72,79,72,67,90,65,34,29.59,29.50,7,0,7,0.00
2012-7-21,98,83,75,77,72,69,84,71,50,29.67,29.55,1,0,1,0.00
2012-7-22,119,88,73,80,73,70,89,67,28,29.76,29.65,3,0,3,0.00
2012-7-23,116,88,73,80,74,68,89,66,31,29.77,29.63,7,0,7,0.06
2012-7-24,116,91,74,79,73,70,87,60,29,29.66,29.48,4,0,4,0.00
2012-7-25,116,91,76,78,72,68,83,58,29,29.57,29.47,7,0,7,0.00
2012-7-26,120,94,77,80,73,68,87,56,26,29.52,29.42,5,0,5,0.00
2012-7-27,113,86,77,80,72,68,82,65,36,29.55,29.46,7,0,7,0.10
2012-7-28,115,87,72,80,72,68,89,65,31,29.58,29.47,4,0,4,0.00
2012-7-29,111,85,74,80,72,68,89,68,34,29.57,29.46,3,0,3,0.00
2012-7-30,112,84,71,78,71,65,89,68,32,29.54,29.45,10,0,10,0.02
2012-7-31,97,77,70,79,70,64,89,81,54,29.55,29.45,6,0,6,0.19
2012-8-1,112,84,71,80,71,64,90,67,32,29.51,29.42,2,0,2,0.00
2012-8-2,119,87,72,79,72,66,89,65,28,29.53,29.42,11,0,11,0.00
2012-8-3,112,82,67,76,70,64,90,70,32,29.64,29.47,8,0,8,0.67
2012-8-4,110,83,69,79,70,64,90,69,36,29.75,29.59,11,0,11,0.00
2012-8-5,102,79,71,80,71,66,90,79,44,29.78,29.67,8,0,8,0.16
2012-8-6,107,81,71,80,72,67,90,76,38,29.71,29.58,12,0,12,0.00
2012-8-7,111,83,71,80,73,68,90,76,37,29.62,29.51,6,0,6,2.25
2012-8-9,106,84,71,86,72,65,91,70,39,29.57,29.41,9,0,9,1.62
2012-8-10,98,79,71,78,71,65,91,76,48,29.46,29.40,6,0,6,0.06
2012-8-11,94,74,68,82,71,65,91,88,66,29.51,29.42,9,0,9,2.75
2012-8-12,110,89,69,78,67,60,91,52,28,29.58,29.51,4,0,4,0.18
2012-8-13,111,82,62,70,63,58,90,59,24,29.62,29.51,7,0,7,0.00
2012-8-14,107,81,68,77,67,59,91,66,35,29.58,29.44,8,0,8,0.00
2012-8-15,103,82,68,78,71,65,91,72,41,29.55,29.47,5,0,5,0.61
2012-8-16,110,84,70,75,69,63,90,66,32,29.60,29.50,7,0,7,0.00
2012-8-17,112,84,69,77,71,66,91,69,32,29.57,29.39,8,0,8,2.09
2012-8-18,109,82,67,77,70,63,91,71,36,29.49,29.39,4,0,4,0.28
2012-8-19,98,79,70,77,71,66,90,77,49,29.48,29.39,5,0,5,0.00
2012-8-20,95,78,70,75,70,65,91,77,49,29.53,29.41,6,0,6,0.00
2012-8-21,101,79,66,78,69,62,91,74,42,29.60,29.50,7,0,7,0.00
2012-8-22,100,78,67,76,69,62,92,75,45,29.65,29.57,6,0,6,0.39
2012-8-23,103,77,67,75,68,63,91,76,40,29.69,29.61,6,0,6,0.00
2012-8-24,105,80,66,75,66,60,91,67,33,29.69,29.60,8,0,8,0.20
2012-8-25,107,79,63,75,64,58,91,64,28,29.72,29.63,8,0,8,0.00
2012-8-26,106,80,64,72,65,61,91,65,33,29.73,29.61,7,0,7,0.00
2012-8-27,103,79,65,75,69,62,91,74,42,29.66,29.54,11,0,11,0.43
2012-8-28,89,76,72,80,71,68,92,86,72,29.58,29.51,4,0,4,0.15
2012-8-29,106,81,71,81,71,64,91,74,43,29.58,29.49,8,0,8,0.22
2012-8-30,90,78,70,77,72,66,92,82,65,29.72,29.55,5,0,5,0.00
2012-8-31,113,85,70,82,72,64,92,70,35,29.80,29.68,5,0,5,0.00
2012-9-1,113,86,70,80,73,66,91,69,35,29.74,29.60,7,0,7,0.04
2012-9-2,111,84,72,78,72,68,91,73,35,29.63,29.51,7,0,7,0.06
2012-9-3,106,83,72,80,73,68,91,76,42,29.58,29.48,10,0,10,0.10
2012-9-4,106,81,72,79,72,69,92,78,42,29.54,29.46,9,0,9,0.00
2012-9-5,108,82,70,77,71,66,92,73,37,29.55,29.45,6,0,6,0.00
2012-9-6,107,82,70,78,72,67,91,74,38,29.56,29.45,6,0,6,0.00
2012-9-7,114,84,71,79,72,67,91,70,32,29.53,29.42,6,0,6,0.00
2012-9-8,108,81,71,79,72,67,91,76,38,29.43,29.28,9,0,9,0.70
2012-9-9,103,76,62,68,63,58,92,67,30,29.56,29.36,10,0,10,0.00
2012-9-10,104,74,58,66,59,54,92,65,26,29.69,29.55,8,0,8,0.00
2012-9-11,103,73,58,66,59,55,92,67,29,29.83,29.68,5,0,5,0.00
2012-9-12,100,73,57,67,58,55,91,65,29,29.89,29.78,8,0,8,0.00
2012-9-13,94,72,56,68,61,53,91,70,43,29.86,29.75,8,0,8,0.00
2012-9-14,103,76,64,69,62,59,86,65,33,29.79,29.69,7,0,7,0.00
2012-9-15,108,78,60,71,63,58,91,66,29,29.74,29.64,5,0,5,0.00
2012-9-16,105,79,64,72,66,61,91,67,31,29.68,29.57,5,0,6,0.00
2012-9-17,96,77,67,75,69,64,91,78,48,29.62,29.44,12,0,12,0.26
2012-9-18,86,74,68,75,68,64,92,83,68,29.45,29.28,8,0,9,0.00
2012-9-19,103,74,62,70,62,55,92,70,35,29.65,29.40,11,0,11,0.00
2012-9-20,102,73,58,69,62,54,91,70,34,29.69,29.59,7,0,7,0.00
2012-9-21,105,76,61,74,64,56,91,70,34,29.64,29.54,5,0,5,0.00
2012-9-22,106,79,65,72,65,62,91,68,31,29.61,29.50,10,0,10,0.00
2012-9-23,104,75,61,64,56,46,88,56,20,29.68,29.55,7,0,7,0.00
2012-9-24,100,68,51,62,52,44,84,60,29,29.73,29.64,12,0,12,0.00
2012-9-25,101,72,54,63,56,51,91,63,28,29.78,29.71,8,0,8,0.00
2012-9-26,106,73,54,65,58,51,91,64,25,29.78,29.69,7,0,7,0.00
2012-9-27,108,76,63,75,64,59,91,71,29,29.78,29.64,2,0,2,0.00
2012-9-28,106,78,63,75,66,59,91,70,36,29.68,29.54,0,0,0,0.00
2012-9-29,103,78,65,73,66,62,90,71,39,29.58,29.41,6,0,6,0.00
2012-9-30,72,68,65,67,65,61,91,88,83,29.45,29.37,3,0,3,0.19
2012-10-1,93,76,68,77,68,60,91,76,55,29.39,29.25,10,0,10,0.12
2012-10-2,105,80,70,75,69,64,91,73,35,29.53,29.27,9,0,9,0.00
2012-10-3,90,73,66,69,65,63,91,78,49,29.76,29.53,4,0,4,0.04
2012-10-4,104,74,64,78,65,58,91,74,39,29.82,29.71,9,0,9,0.20
2012-10-5,105,71,59,72,61,55,91,75,31,29.75,29.58,8,0,8,0.00
2012-10-6,107,76,60,69,62,56,91,67,28,29.59,29.44,6,0,6,0.00
2012-10-7,101,73,60,70,62,57,91,71,37,29.61,29.50,4,0,4,0.00
2012-10-8,67,59,53,58,51,49,87,75,63,29.69,29.59,9,0,9,0.00
2012-10-9,91,60,47,59,50,44,89,72,32,29.73,29.61,6,0,6,0.00
2012-10-10,97,63,46,63,53,43,91,73,31,29.70,29.59,6,0,6,0.00
2012-10-11,95,64,48,59,51,46,91,67,28,29.84,29.69,9,0,9,0.00
2012-10-12,102,70,52,66,56,48,91,65,30,29.81,29.70,6,0,6,0.00
2012-10-13,93,67,53,61,54,49,88,66,35,29.95,29.80,10,0,10,0.00
2012-10-14,94,69,53,69,60,50,91,74,44,29.85,29.59,8,0,8,0.00
2012-10-15,95,70,56,70,60,46,91,73,40,29.60,29.35,8,0,8,0.00
2012-10-16,97,64,46,55,48,43,90,61,24,29.54,29.42,8,0,8,0.00
2012-10-17,94,64,50,58,49,42,89,63,26,29.55,29.42,7,0,7,0.00
2012-10-18,97,68,52,70,58,50,91,73,37,29.45,29.32,8,0,8,0.00
2012-10-19,100,68,51,62,48,36,91,56,18,29.41,29.29,8,0,8,0.00
2012-10-20,95,63,47,52,43,36,72,51,23,29.51,29.37,6,0,6,0.00
2012-10-21,98,63,43,54,46,40,90,60,23,29.70,29.50,8,0,8,0.00
2012-10-22,101,65,46,58,49,43,91,64,24,29.79,29.66,5,0,5,0.00
2012-10-23,102,67,47,58,50,44,90,60,21,29.77,29.65,7,0,7,0.00
2012-10-24,102,68,50,66,55,46,90,66,29,29.75,29.62,6,0,6,0.00
2012-10-25,100,72,54,68,59,51,91,69,33,29.66,29.56,8,0,8,0.00
2012-10-26,95,70,58,66,58,53,91,68,34,29.60,29.44,10,0,10,0.00
2012-10-27,83,67,60,62,58,55,89,73,49,29.44,29.22,7,0,7,0.00
2012-10-28,97,67,54,59,52,43,81,62,27,29.28,29.17,9,0,9,0.00
2012-10-29,79,54,41,43,37,32,80,55,27,29.29,29.16,10,0,10,0.00
2012-10-30,75,52,42,35,28,23,58,41,23,29.31,29.12,8,0,8,0.00
2012-10-31,86,54,40,35,27,21,61,38,15,29.40,29.30,10,0,10,0.00
2012-11-1,86,53,39,33,25,16,53,36,14,29.50,29.39,6,0,6,0.00
2012-11-2,94,61,42,48,36,21,65,42,20,29.54,29.41,8,0,8,0.00
2012-11-3,99,64,43,53,45,39,87,55,20,29.66,29.52,7,0,7,0.00
2012-11-4,99,69,56,63,54,47,85,61,29,29.55,29.45,8,0,8,0.00
2012-11-5,88,59,47,50,44,38,87,61,26,29.62,29.49,8,0,8,0.00
2012-11-6,60,48,37,42,38,32,85,67,44,29.56,29.47,9,0,9,0.02
2012-11-7,50,42,35,42,37,31,90,83,73,29.55,29.43,0,0,0,0.02
2012-11-8,88,52,35,50,37,30,91,62,22,29.70,29.55,0,0,0,0.00
2012-11-9,94,55,34,47,37,31,90,56,19,29.84,29.70,6,0,6,0.00
2012-11-10,96,58,36,48,38,31,89,52,19,29.92,29.80,6,0,6,0.00
2012-11-11,89,60,42,59,47,34,81,64,35,30.01,29.89,8,0,8,0.00
2012-11-12,81,64,55,66,58,52,91,81,58,29.90,29.72,8,0,8,0.00
2012-11-13,66,57,44,59,51,39,91,83,72,29.86,29.71,7,0,7,0.00
2012-11-14,63,50,43,42,39,36,86,67,46,29.94,29.78,9,0,9,0.23
2012-11-15,52,44,39,47,41,36,92,89,81,29.85,29.76,1,0,1,1.89
2012-11-16,79,50,38,53,41,34,92,74,36,29.87,29.78,6,0,6,0.00
2012-11-17,79,51,35,42,35,29,91,60,25,29.96,29.86,10,0,10,0.00
2012-11-18,76,56,47,50,41,29,70,56,38,29.93,29.81,9,0,9,0.00
2012-11-19,85,59,49,54,47,43,87,67,35,29.83,29.71,7,0,7,0.00
2012-11-20,85,54,43,55,46,41,91,75,35,29.73,29.60,0,0,0,0.00
2012-11-21,86,55,39,53,41,35,91,66,24,29.71,29.62,8,0,8,0.00
2012-11-22,88,53,36,46,37,32,89,61,22,29.81,29.70,3,0,3,0.00
2012-11-23,91,57,36,52,42,32,89,60,26,29.73,29.51,6,0,6,0.00
2012-11-24,82,51,36,44,30,21,75,47,21,29.66,29.53,10,0,10,0.00
2012-11-25,81,45,27,37,25,20,79,51,19,29.75,29.61,3,0,3,0.00
2012-11-26,93,54,34,40,27,21,63,39,15,29.78,29.66,0,0,0,0.00
2012-11-27,58,50,45,48,39,23,91,68,40,29.74,29.63,4,0,4,0.15
2012-11-28,79,52,39,51,44,36,92,77,38,29.92,29.72,6,0,6,0.00
2012-11-29,80,48,32,46,35,30,91,66,27,30.01,29.89,7,0,7,0.00
2012-11-30,82,52,36,52,41,29,87,69,36,29.94,29.83,5,0,5,0.00
2012-12-1,85,59,48,60,50,45,89,73,43,29.93,29.84,4,0,4,0.00
2012-12-2,86,61,49,63,53,46,90,76,45,29.92,29.80,3,0,3,0.00
2012-12-3,94,64,53,68,54,48,91,75,41,29.89,29.78,0,0,0,0.00
2012-12-4,92,62,49,66,54,46,91,79,43,29.89,29.76,6,0,6,0.00
2012-12-5,85,65,55,62,55,52,91,73,46,29.77,29.65,0,0,0,0.00
2012-12-6,65,58,50,55,50,41,90,75,63,29.75,29.67,9,0,9,0.00
2012-12-7,67,53,47,50,44,40,91,73,52,29.69,29.54,5,0,5,0.00
2012-12-8,83,56,43,62,50,41,91,81,49,29.63,29.55,6,0,6,0.00
2012-12-9,70,60,54,63,56,51,91,88,78,29.67,29.53,2,0,2,0.00
2012-12-10,81,63,56,65,57,52,91,81,54,29.53,29.29,7,0,7,0.00
2012-12-11,68,56,49,55,47,40,92,72,54,29.66,29.31,2,0,2,0.00
2012-12-12,50,46,41,42,40,37,91,81,65,29.79,29.64,7,0,7,0.63
2012-12-13,66,44,36,47,39,34,92,83,50,29.90,29.75,12,0,12,0.00
2012-12-14,83,46,31,50,37,28,92,74,32,29.93,29.76,6,0,6,0.00
2012-12-15,79,51,38,48,40,34,90,70,31,29.78,29.63,3,0,3,0.00
2012-12-16,72,58,51,62,54,46,91,88,71,29.64,29.41,6,0,6,0.37
2012-12-17,58,56,53,53,51,48,88,82,78,29.47,29.23,9,0,9,0.38
2012-12-18,79,55,41,56,43,32,93,66,30,29.56,29.29,8,0,8,0.00
2012-12-19,89,54,37,52,40,31,83,62,27,29.66,29.55,6,0,6,0.00
2012-12-20,69,53,40,60,46,32,92,77,57,29.64,29.20,13,1,13,0.35
2012-12-21,62,43,34,32,26,18,67,52,30,29.59,29.37,11,1,11,0.00
2012-12-22,78,44,29,33,21,16,58,41,18,29.73,29.58,4,0,4,0.00
2012-12-23,69,48,33,35,26,18,55,44,27,29.75,29.62,5,0,5,0.00
2012-12-24,51,48,44,48,39,30,92,74,52,29.64,29.41,8,0,8,0.51
2012-12-25,53,51,49,51,48,46,93,91,87,29.60,29.42,10,0,10,0.20
2012-12-26,75,52,36,61,43,29,93,73,43,29.42,29.10,19,1,19,0.55
2012-12-27,69,43,33,41,32,29,85,69,35,29.61,29.40,7,0,7,0.00
2012-12-28,70,44,31,44,35,28,92,72,37,29.68,29.44,7,0,7,0.00
2012-12-29,59,44,34,47,38,29,92,80,59,29.65,29.28,9,0,9,0.60
2012-12-30,72,40,27,38,27,23,86,63,27,29.95,29.65,6,0,6,0.00
2012-12-31,75,47,28,44,35,23,87,66,30,29.97,29.71,7,0,7,0.00
2013-1-1,72,54,43,55,47,38,92,78,55,29.71,29.47,2,0,2,0.02